Flag Weather past 2 weeks in Bonn, North Rhine-Westphalia, Germany

Now
47 °F

Rain. Low clouds.


Feels Like: 44 °F
Forecast: 34 / 42 °F
Wind: 6 mph from Northwest

Location: Bonn-Hangelar

Current Time: Nov 24, 2014 at 6:40:33 AM

Latest Report: Nov 24, 2014 at 6:00 AM


Visibility: 6 mi

Pressure: 30.18 "Hg

Humidity: 99%

Dew point: 46 °F

Location of BonnLocation

Historic Weather in Bonn — Graph

°F

Bonn temperature yesterday

Maximum temperature yesterday: 60 °F (at 2:00 PM)
Minimum temperature yesterday: 48 °F (at 6:00 AM)
Average temperature yesterday: 55 °F

Past Weeks' High & Low Weather Summary

 TemperatureHumidityPressure
High61 °F (Nov 22, 3:00 PM)100% (Nov 11, 6:00 AM)30.33 "Hg (Nov 11, 6:00 AM)
Low34 °F (Nov 21, 6:00 AM)58% (Nov 13, 3:00 PM)29.50 "Hg (Nov 16, 4:00 PM)
Average47 °F89%29.86 "Hg
* Reported Nov 9 5:00 AM — Nov 24 5:00 AM, Bonn, Weather by CustomWeather, © 2014

Note: Actual official high and low records may vary slightly from our data, if they occured in-between our weather recording intervals... More about our weather records

Advertising

Bonn weather history for previous 24 hours

 ConditionsComfort  
Time TempWeatherWind HumidityBarometerVisibility
5:00 AM
Nov 24
47 °FLight rain. Low clouds.3 mph97%30.14 "Hg3 mi
4:00 AM47 °FLight rain. Low clouds.5 mph99%30.12 "Hg6 mi
3:00 AM48 °FLight freezing rain. Low clouds.6 mph99%30.10 "Hg1 mi
2:00 AM53 °FDrizzle. Low clouds.8 mph95%30.05 "Hg2 mi
1:00 AM56 °FPassing clouds.7 mph83%30.02 "Hg13 mi
12:00 AM55 °FOvercast.6 mph82%30.01 "Hg14 mi
11:00 PM
Nov 23
55 °FOvercast.6 mph81%30.00 "Hg15 mi
10:00 PM57 °FOvercast.8 mph76%29.98 "Hg17 mi
9:00 PM57 °FOvercast.8 mph74%29.96 "Hg19 mi
8:00 PM58 °FOvercast.7 mph72%29.97 "Hg19 mi
7:00 PM57 °FOvercast.1 mph73%29.96 "Hg19 mi
6:00 PM57 °FOvercast.3 mph73%29.97 "Hg19 mi
5:00 PM56 °FOvercast.1 mph74%29.96 "Hg19 mi
4:00 PM60 °FOvercast.2 mph68%29.96 "Hg19 mi
3:00 PM60 °FOvercast.3 mph75%29.99 "Hg19 mi
2:00 PM60 °FOvercast.7 mph72%30.00 "Hg19 mi
1:00 PM60 °FOvercast.7 mph74%30.01 "Hg19 mi
12:00 PM58 °FOvercast.7 mph77%30.04 "Hg25 mi
11:00 AM56 °FOvercast.2 mph80%30.07 "Hg25 mi
10:00 AM53 °FPassing clouds.5 mph84%30.06 "Hg3 mi
9:00 AM54 °FOvercast.3 mph76%30.06 "Hg25 mi
8:00 AM51 °FPartly sunny.1 mph82%30.06 "Hg28 mi
7:00 AM55 °FPassing clouds.5 mph75%30.04 "Hg25 mi
6:00 AM48 °FPassing clouds.2 mph93%30.06 "Hg19 mi
Weather by CustomWeather, © 2014

See weather overviewHow to use our weather pages